Location: Vancouver
(49.2500°N, 123.1330°W)
Time: 13:57:56
(UTC-07:00)

AO-27 - Visible Passes

Search period start: 29 August 2015 00:00
Search period end: 08 September 2015 00:00
Orbit: 785 x 799 km, 98.7° (Epoch: 29 August)

Date Brightness Start Highest point End Pass type
(mag) Time Alt. Az. Time Alt. Az. Time Alt. Az.
29 Aug 9.5 02:50:23 10° NE 02:54:21 22° E 02:56:20 18° ESE visible
29 Aug 7.8 04:29:13 10° N 04:34:19 59° WNW 04:37:05 27° SW visible
30 Aug 10.1 02:22:49 10° ENE 02:24:57 13° E 02:26:56 11° ESE visible
30 Aug 7.6 04:00:11 10° NNE 04:05:24 83° ESE 04:07:42 35° S visible
30 Aug 9.3 05:40:50 10° NNW 05:44:22 18° WNW 05:47:45 10° W visible
31 Aug 8.4 03:31:21 10° NNE 03:36:21 48° E 03:38:18 33° SSE visible
31 Aug 8.7 05:11:16 10° N 05:15:42 29° WNW 05:19:04 15° WSW visible
01 Sep 9.2 03:02:46 10° NE 03:07:11 28° E 03:08:55 23° SE visible
01 Sep 8.0 04:41:58 10° N 04:46:56 47° WNW 04:49:40 25° SW visible
02 Sep 9.8 02:34:43 10° NE 02:37:51 16° E 02:39:31 15° ESE visible
02 Sep 7.6 04:12:52 10° NNE 04:18:05 79° WNW 04:20:17 36° SSW visible
02 Sep 9.5 05:53:57 10° NNW 05:56:53 15° NW 05:59:39 10° W visible
03 Sep 8.0 03:43:56 10° NNE 03:49:06 61° ESE 03:50:53 39° SSE visible
03 Sep 9.0 05:24:10 10° N 05:28:16 24° WNW 05:31:38 13° WSW visible
04 Sep 8.9 03:15:14 10° NNE 03:19:59 35° E 03:21:29 30° SE visible
04 Sep 8.3 04:54:46 10° N 04:59:33 38° WNW 05:02:15 22° WSW visible
05 Sep 9.6 02:46:54 10° NE 02:50:42 21° E 02:52:06 19° ESE visible
05 Sep 7.7 04:25:35 10° N 04:30:44 63° WNW 04:32:51 35° SW visible
06 Sep 10.1 02:19:36 10° ENE 02:21:16 12° E 02:22:42 11° E visible
06 Sep 7.7 03:56:35 10° NNE 04:01:49 77° ESE 04:03:27 45° S visible
06 Sep 9.2 05:37:08 10° NNW 05:40:49 20° WNW 05:44:13 11° W visible
07 Sep 8.5 03:27:46 10° NNE 03:32:45 44° E 03:34:03 37° SE visible
07 Sep 8.6 05:07:36 10° N 05:12:09 31° WNW 05:14:49 19° WSW visible
